Location: Newark
(22.3060°N, 114.2134°E)
Time: 03:54:08
(UTC+00:00)

Explorer 11/Cluster Stage 4 - Pass Details

Date: 30 July 2021
Orbit: 467 x 1256 km, 28.8° (Epoch: 21 September)

Event Time Altitude Azimuth Distance (km) Brightness Sun altitude
Rises 08:54:46 0° 279° (W) 3,631 11.3 28.2°
Reaches altitude 10° 08:58:04 10° 268° (W) 2,529 10.8 27.5°
Maximum altitude 09:02:54 25° 214° (SW) 1,484 8.5 26.4°
Drops below altitude 10° 09:06:57 10° 158° (SSE) 2,086 8.5 25.4°
Sets 09:09:25 0° 145° (SE) 2,874 9.1 24.9°
